Simultaneous Nadir Overpasses (SNOs) Predictions

Prediction of SNOs between GOES-17 and METOP-B Satellite Orbit:

Table of predicted SNOs for the next 14.0 days since TLE Epoch: 7/20/2024
Index Date Time (GOES-17) GOES-17 Lat,Lon METOP-B Lat,Lon Distance(km) Time Diff (sec)
1 07/21/2024 04:06:00 0.00,-104.69 0.67,-101.73 337.47 80
2 07/22/2024 16:27:35 0.00,-104.73 0.35,-106.32 181.43 80
3 07/23/2024 16:04:18 -0.01,-104.73 -0.73,-101.34 386.24 80
4 07/25/2024 04:26:02 0.00,-104.71 -0.27,-105.96 143.12 80
5 07/26/2024 04:02:44 0.01,-104.71 0.82,-100.98 424.66 80
6 07/27/2024 16:24:20 -0.00,-104.75 0.19,-105.57 93.73 80
7 07/28/2024 16:01:02 -0.00,-104.76 -0.91,-100.59 474.13 80
8 07/30/2024 04:22:46 -0.00,-104.73 -0.13,-105.21 55.07 80
9 08/01/2024 16:21:03 0.01,-104.77 0.02,-104.82 6.04 80
